Torna al catalogo

SCOUT B-1 R/B

AttivoSSO
NORAD 8861·ROCKET BODY·🇺🇸 United States

Lanciato May 22, 1976 da Vandenberg Space Force Base

Loading…

Prossimi Passaggi (prossime 24 ore)

TLE

AggiornatoSource: Space-Track

Epoca: Sep 14, 2026, 21:16 UTC

1 08861U 76047B   26257.88616029  .00000004  00000-0  61184-4 0  9997
2 08861  99.8365 124.6902 0040939 289.1396  96.9142 13.66776623506786

Traccia SCOUT B-1 R/B in tempo reale con AllMySat

Download on the App Store